• In Kazakhstan
  • List of Countries
  • For 7 days
  • Water Temperature
  • Satellite Maps
  • Weather Map
  • News
  • Weather Widgets
  • user-avatar
    Login

    Hourly Weather Helena

    Today, 24 November, Friday

    Time Temperature Precipitation Wind Pressure Humidity
    00:00 +6°C° 0.2 mm 5 mps 635 mmHg 80%
    01:00 +4°C° 0.2 mm 6 mps 636 mmHg 77%
    02:00 +2°C° 0.2 mm 7 mps 637 mmHg 73%
    03:00 +1°C° 0 mm 6 mps 637 mmHg 75%
    04:00 0°C° 0 mm 4 mps 637 mmHg 76%
    05:00 0°C° 0 mm 3 mps 638 mmHg 78%
    06:00 0°C° 0 mm 3 mps 638 mmHg 79%
    07:00 0°C° 0 mm 3 mps 639 mmHg 81%
    08:00 -1°C° 0 mm 3 mps 639 mmHg 82%
    09:00 0°C° 0 mm 4 mps 640 mmHg 74%
    10:00 +1°C° 0 mm 5 mps 640 mmHg 65%
    11:00 +2°C° 0 mm 6 mps 641 mmHg 57%
    12:00 +2°C° 0 mm 6 mps 641 mmHg 55%
    13:00 +3°C° 0 mm 5 mps 641 mmHg 53%
    14:00 +3°C° 0 mm 5 mps 641 mmHg 51%
    15:00 +3°C° 0 mm 4 mps 641 mmHg 56%
    16:00 +1°C° 0 mm 4 mps 641 mmHg 62%
    17:00 +1°C° 0 mm 3 mps 641 mmHg 67%
    18:00 0°C° 0 mm 3 mps 642 mmHg 68%
    19:00 +1°C° 0 mm 2 mps 642 mmHg 69%
    20:00 +1°C° 0 mm 2 mps 642 mmHg 70%
    21:00 +1°C° 0 mm 2 mps 642 mmHg 70%
    22:00 +1°C° 0 mm 2 mps 643 mmHg 70%
    23:00 -1°C° 0 mm 2 mps 643 mmHg 70%

    Tomorrow, 25 November, Saturday

    Time Temperature Precipitation Wind Pressure Humidity
    00:00 -1°C° 0 mm 2 mps 643 mmHg 70%
    01:00 -1°C° 0 mm 2 mps 643 mmHg 71%
    02:00 -1°C° 0 mm 2 mps 643 mmHg 71%
    03:00 -1°C° 0 mm 2 mps 643 mmHg 72%
    04:00 -1°C° 0 mm 2 mps 643 mmHg 73%
    05:00 -1°C° 0 mm 2 mps 644 mmHg 74%
    06:00 -1°C° 0 mm 2 mps 644 mmHg 75%
    07:00 -1°C° 0 mm 2 mps 644 mmHg 75%
    08:00 -1°C° 0 mm 2 mps 644 mmHg 76%
    09:00 0°C° 0 mm 3 mps 644 mmHg 66%
    10:00 +2°C° 0 mm 3 mps 645 mmHg 56%
    11:00 +4°C° 0 mm 3 mps 645 mmHg 47%
    12:00 +5°C° 0 mm 3 mps 645 mmHg 42%
    13:00 +7°C° 0 mm 3 mps 644 mmHg 38%
    14:00 +7°C° 0 mm 3 mps 644 mmHg 33%
    15:00 +5°C° 0 mm 3 mps 644 mmHg 39%
    16:00 +4°C° 0 mm 3 mps 643 mmHg 44%
    17:00 +4°C° 0 mm 2 mps 643 mmHg 49%
    18:00 +3°C° 0.1 mm 3 mps 643 mmHg 51%
    19:00 +3°C° 0.1 mm 3 mps 643 mmHg 53%
    20:00 +3°C° 0.1 mm 3 mps 643 mmHg 55%
    21:00 +3°C° 0 mm 3 mps 642 mmHg 59%
    22:00 +3°C° 0 mm 3 mps 642 mmHg 64%
    23:00 +2°C° 0 mm 3 mps 642 mmHg 68%

    Day after tomorrow, 26 November, Sunday

    Time Temperature Precipitation Wind Pressure Humidity
    00:00 +2°C° 0 mm 3 mps 642 mmHg 68%
    01:00 +2°C° 0 mm 3 mps 641 mmHg 67%
    02:00 +2°C° 0 mm 3 mps 641 mmHg 67%
    03:00 +3°C° 0 mm 3 mps 641 mmHg 67%
    04:00 +3°C° 0 mm 3 mps 641 mmHg 66%
    05:00 +3°C° 0 mm 3 mps 640 mmHg 66%
    06:00 +3°C° 0 mm 3 mps 640 mmHg 65%
    07:00 +4°C° 0 mm 3 mps 640 mmHg 64%
    08:00 +4°C° 0 mm 4 mps 640 mmHg 63%
    09:00 +6°C° 0 mm 4 mps 640 mmHg 59%
    10:00 +7°C° 0 mm 4 mps 640 mmHg 55%
    11:00 +9°C° 0 mm 5 mps 640 mmHg 51%
    12:00 +9°C° 0 mm 5 mps 639 mmHg 54%
    13:00 +10°C° 0 mm 5 mps 639 mmHg 56%
    14:00 +10°C° 0 mm 6 mps 638 mmHg 58%
    15:00 +9°C° 0 mm 5 mps 637 mmHg 61%
    16:00 +8°C° 0 mm 5 mps 636 mmHg 64%
    17:00 +7°C° 0 mm 4 mps 635 mmHg 67%
    18:00 +7°C° 0 mm 4 mps 635 mmHg 65%
    19:00 +6°C° 0 mm 5 mps 635 mmHg 64%
    20:00 +6°C° 0 mm 5 mps 635 mmHg 63%
    21:00 +5°C° 0.3 mm 5 mps 635 mmHg 67%
    22:00 +3°C° 0.3 mm 5 mps 635 mmHg 70%
    23:00 +2°C° 0.3 mm 5 mps 635 mmHg 74%

    27 November, Monday

    Time Temperature Precipitation Wind Pressure Humidity
    00:00 +1°C° 0.6 mm 4 mps 635 mmHg 74%
    01:00 0°C° 0.6 mm 4 mps 635 mmHg 74%
    02:00 -1°C° 0.6 mm 4 mps 636 mmHg 73%
    03:00 0°C° 0.1 mm 3 mps 636 mmHg 74%
    04:00 +1°C° 0.1 mm 2 mps 636 mmHg 75%
    05:00 -1°C° 0.1 mm 2 mps 636 mmHg 76%
    06:00 -1°C° 0 mm 2 mps 636 mmHg 76%
    07:00 -1°C° 0 mm 2 mps 636 mmHg 77%
    08:00 -1°C° 0 mm 2 mps 637 mmHg 77%
    09:00 -2°C° 0 mm 4 mps 637 mmHg 70%
    10:00 -2°C° 0 mm 5 mps 637 mmHg 63%
    11:00 -2°C° 0 mm 7 mps 638 mmHg 55%
    12:00 -2°C° 0 mm 8 mps 638 mmHg 54%
    13:00 -2°C° 0 mm 8 mps 638 mmHg 52%
    14:00 -3°C° 0 mm 9 mps 638 mmHg 50%
    15:00 -4°C° 0 mm 8 mps 639 mmHg 55%
    16:00 -4°C° 0 mm 7 mps 640 mmHg 59%
    17:00 -5°C° 0 mm 6 mps 640 mmHg 64%
    18:00 -5°C° 0 mm 5 mps 641 mmHg 65%
    19:00 -5°C° 0 mm 5 mps 642 mmHg 67%
    20:00 -5°C° 0 mm 4 mps 643 mmHg 68%
    21:00 -5°C° 0 mm 4 mps 643 mmHg 69%
    22:00 -5°C° 0 mm 4 mps 643 mmHg 69%
    23:00 -5°C° 0 mm 4 mps 644 mmHg 69%

    28 November, Tuesday

    Time Temperature Precipitation Wind Pressure Humidity
    00:00 -5°C° 0 mm 4 mps 644 mmHg 69%
    01:00 -5°C° 0 mm 4 mps 644 mmHg 69%
    02:00 -5°C° 0 mm 3 mps 644 mmHg 69%
    03:00 -5°C° 0 mm 3 mps 644 mmHg 68%
    04:00 -5°C° 0 mm 3 mps 644 mmHg 67%
    05:00 -5°C° 0 mm 3 mps 644 mmHg 67%
    06:00 -5°C° 0 mm 3 mps 644 mmHg 65%
    07:00 -5°C° 0 mm 4 mps 644 mmHg 64%
    08:00 -5°C° 0 mm 4 mps 644 mmHg 62%
    09:00 -3°C° 0 mm 4 mps 644 mmHg 56%
    10:00 -2°C° 0 mm 5 mps 644 mmHg 51%
    11:00 0°C° 0 mm 5 mps 644 mmHg 45%
    12:00 +1°C° 0 mm 6 mps 643 mmHg 49%
    13:00 0°C° 0 mm 7 mps 643 mmHg 52%
    14:00 0°C° 0 mm 8 mps 643 mmHg 56%
    15:00 -1°C° 0 mm 7 mps 643 mmHg 59%
    16:00 -2°C° 0 mm 6 mps 643 mmHg 61%
    17:00 -2°C° 0 mm 5 mps 643 mmHg 64%
    18:00 -2°C° 0 mm 5 mps 643 mmHg 66%
    19:00 -4°C° 0 mm 5 mps 642 mmHg 67%
    20:00 -4°C° 0 mm 5 mps 642 mmHg 68%
    21:00 -4°C° 0.1 mm 5 mps 642 mmHg 69%
    22:00 -4°C° 0.1 mm 6 mps 642 mmHg 69%
    23:00 -4°C° 0.1 mm 6 mps 642 mmHg 69%

    29 November, Wednesday

    Time Temperature Precipitation Wind Pressure Humidity
    00:00 -4°C° 0.3 mm 7 mps 642 mmHg 68%
    01:00 -4°C° 0.3 mm 7 mps 642 mmHg 67%
    02:00 -5°C° 0.3 mm 8 mps 643 mmHg 66%
    03:00 -5°C° 0 mm 8 mps 643 mmHg 66%
    04:00 -6°C° 0 mm 8 mps 644 mmHg 66%
    05:00 -6°C° 0 mm 7 mps 645 mmHg 66%
    06:00 -6°C° 0 mm 7 mps 646 mmHg 66%
    07:00 -6°C° 0 mm 6 mps 646 mmHg 66%
    08:00 -6°C° 0 mm 6 mps 647 mmHg 66%
    09:00 -6°C° 0 mm 7 mps 648 mmHg 62%
    10:00 -5°C° 0 mm 8 mps 649 mmHg 58%
    11:00 -4°C° 0 mm 8 mps 649 mmHg 54%
    12:00 -4°C° 0 mm 8 mps 650 mmHg 53%
    13:00 -4°C° 0 mm 8 mps 650 mmHg 53%
    14:00 -4°C° 0 mm 8 mps 650 mmHg 52%
    15:00 -3°C° 0 mm 7 mps 651 mmHg 56%
    16:00 -4°C° 0 mm 6 mps 651 mmHg 60%
    17:00 -4°C° 0 mm 4 mps 651 mmHg 64%
    18:00 -5°C° 0 mm 4 mps 652 mmHg 66%
    19:00 -5°C° 0 mm 3 mps 653 mmHg 68%
    20:00 -5°C° 0 mm 3 mps 653 mmHg 70%
    21:00 -5°C° 0 mm 3 mps 653 mmHg 71%
    22:00 -5°C° 0 mm 3 mps 653 mmHg 72%
    23:00 -6°C° 0 mm 3 mps 653 mmHg 72%
    Show more